Weather History for Covington, KY

Change the Weather History Date:

Friday, December 23, 2011

  Actual Average Record
Temperature  
Mean Temperature 37 °F 32 °F  
Max Temperature 40 °F 40 °F 66 °F (1933)
Min Temperature 34 °F 25 °F -12 °F (1989)
Degree Days  
Heating Degree Days 28 33  
Month to date heating degree days 577 691  
Since 1 July heating degree days 1441 1651  
Cooling Degree Days 0 0  
Month to date cooling degree days 0 0  
Year to date cooling degree days 1349 1121  
Moisture  
Dew Point 35 °F    
Average Humidity 85    
Maximum Humidity 100    
Minimum Humidity 70    
Precipitation  
Precipitation 0.02 in 0.12 in 2.77 in (1921)
Month to date precipitation 5.64 2.50  
Year to date precipitation 72.40 41.65  
Snow  
Snow 0.00 in 0.20 in 2.70 in (1935)
Month to date snowfall T 3.2  
Since 1 July snowfall 0.4 4.0  
Snow Depth 0.00 in    
Sea Level Pressure  
Sea Level Pressure 30.24 in    
Wind  
Wind Speed 5 mph (NW)    
Max Wind Speed 16 mph    
Max Gust Speed 22 mph    
Visibility 7 miles    
Events Rain    
T = Trace of Precipitation, MM = Missing Value Source: NWS Daily Summary

Daily Weather History Graph

Daily Weather History Graph

Search for Another Location

Airport:

Trip Planner

Search our weather history database for the weather conditions in past years. The results will help you decide how hot, cold, wet, or windy it might be!

Date:

Astronomy

Dec. 23, 2011 Rise Set
Actual Time 7:54 AM EST 5:20 PM EST
Civil Twilight 7:24 AM EST 5:50 PM EST
Nautical Twilight 6:51 AM EST 6:24 PM EST
Astronomical Twilight 6:18 AM EST 6:56 PM EST
Moon 6:43 AM EST (12/23) 4:28 PM EST (12/23)
Length of Visible Light 10h 25m
Length of Day
9h 25m
Waning Crescent, 1% of the Moon is Illuminated
Dec 23
Waning Crescent
Dec 24
New
Jan 1
First Quarter
Jan 9
Full
Jan 16
Last Quarter

Hourly Weather History & Observations

Time (EST) Temp. Windchill Dew Point Humidity Pressure Visibility Wind Dir Wind Speed Gust Speed Precip Events Conditions
12:31 AM 39.2 °F 37.0 °F 37.4 °F 93% 30.09 in 6.0 mi WNW 3.5 mph - N/A   Mostly Cloudy
12:52 AM 37.0 °F 32.4 °F 36.0 °F 96% 30.11 in 5.0 mi West 5.8 mph - N/A   Mostly Cloudy
1:37 AM 37.4 °F 33.8 °F 37.4 °F 100% 30.10 in 6.0 mi West 4.6 mph - N/A   Mostly Cloudy
1:52 AM 39.0 °F 34.8 °F 37.9 °F 96% 30.11 in 6.0 mi West 5.8 mph - N/A   Overcast
2:45 AM 39.2 °F 33.6 °F 39.2 °F 100% 30.15 in 6.0 mi WNW 8.1 mph - N/A   Overcast
2:52 AM 39.9 °F 34.5 °F 39.0 °F 97% 30.16 in 6.0 mi WNW 8.1 mph - N/A   Overcast
3:52 AM 39.9 °F 35.8 °F 37.9 °F 93% 30.16 in 6.0 mi NNW 5.8 mph - N/A   Overcast
4:52 AM 39.9 °F 35.8 °F 37.9 °F 93% 30.17 in 4.0 mi NW 5.8 mph - N/A   Overcast
5:52 AM 39.9 °F 33.9 °F 37.0 °F 89% 30.19 in 6.0 mi NNW 9.2 mph - N/A   Overcast
6:17 AM 39.2 °F 33.0 °F 35.6 °F 87% 30.19 in 7.0 mi NW 9.2 mph - N/A   Overcast
6:52 AM 39.0 °F 34.8 °F 36.0 °F 89% 30.22 in 7.0 mi NW 5.8 mph - N/A   Overcast
7:33 AM 39.2 °F 35.0 °F 35.6 °F 87% 30.22 in 6.0 mi WNW 5.8 mph - N/A   Overcast
7:52 AM 39.0 °F 34.0 °F 36.0 °F 89% 30.24 in 5.0 mi WNW 6.9 mph - N/A   Overcast
7:58 AM 39.2 °F 35.0 °F 37.4 °F 93% 30.24 in 2.5 mi WNW 5.8 mph - 0.00 in   Drizzle
8:32 AM 37.4 °F 30.3 °F 35.6 °F 93% 30.25 in 2.5 mi NW 10.4 mph 17.3 mph 0.00 in   Drizzle
8:52 AM 37.0 °F 29.3 °F 35.1 °F 93% 30.28 in 2.5 mi NNW 11.5 mph - 0.02 in Rain Light Rain
9:38 AM 37.4 °F 30.8 °F 35.6 °F 93% 30.29 in 2.5 mi North 9.2 mph - 0.00 in   Overcast
9:52 AM 37.0 °F 31.6 °F 35.1 °F 93% 30.30 in 6.0 mi North 6.9 mph - 0.00 in   Overcast
10:15 AM 37.4 °F 31.4 °F 35.6 °F 93% 30.30 in 6.0 mi North 8.1 mph - N/A   Overcast
10:52 AM 37.0 °F 30.4 °F 35.1 °F 93% 30.32 in 7.0 mi North 9.2 mph - N/A   Overcast
11:52 AM 37.0 °F 29.8 °F 34.0 °F 89% 30.31 in 6.0 mi NNW 10.4 mph - N/A   Overcast
12:44 PM 37.4 °F 29.8 °F 33.8 °F 87% 30.28 in 7.0 mi North 11.5 mph - N/A   Overcast
12:52 PM 37.0 °F 30.4 °F 33.1 °F 86% 30.30 in 8.0 mi North 9.2 mph - N/A   Overcast
1:52 PM 37.0 °F 33.3 °F 33.1 °F 86% 30.28 in 10.0 mi North 4.6 mph - N/A   Overcast
2:01 PM 37.4 °F 32.1 °F 32.0 °F 81% 30.27 in 10.0 mi NNW 6.9 mph - N/A   Overcast
2:52 PM 37.9 °F 34.4 °F 32.0 °F 79% 30.28 in 10.0 mi North 4.6 mph - N/A   Overcast
3:52 PM 39.0 °F - 30.9 °F 73% 30.27 in 10.0 mi Calm Calm - N/A   Overcast
4:52 PM 37.9 °F - 30.9 °F 76% 30.28 in 10.0 mi Calm Calm - N/A   Overcast
5:52 PM 37.0 °F 33.3 °F 30.9 °F 79% 30.28 in 10.0 mi SSW 4.6 mph - N/A   Overcast
6:52 PM 37.0 °F - 30.0 °F 76% 30.30 in 10.0 mi Calm Calm - N/A   Overcast
7:52 PM 37.0 °F - 32.0 °F 82% 30.31 in 10.0 mi Calm Calm - N/A   Overcast
8:52 PM 37.0 °F - 30.9 °F 79% 30.31 in 10.0 mi Calm Calm - N/A   Overcast
9:52 PM 35.1 °F 32.2 °F 32.0 °F 89% 30.30 in 10.0 mi South 3.5 mph - N/A   Overcast
10:52 PM 35.6 °F 31.7 °F 30.2 °F 81% 30.31 in 10.0 mi WSW 4.6 mph - N/A   Mostly Cloudy
11:52 PM 36.0 °F 30.3 °F 30.9 °F 82% 30.33 in 10.0 mi WSW 6.9 mph - N/A   Mostly Cloudy